Regional Weather Roundup
Issued by NWS Jackson, KY

Home | Current Version | Previous Version | Graphics & Text | Print | Product List | Glossary On
Versions: 1 2 3 4 5 6 7 8 9 10 11 12 13 14 15 16 17 18 19 20 21 22 23 24 25 26 27 28 29 30 31 32 33 34 35 36 37 38 39 40 41 42 43 44 45 46 47 48 49 50
000
ASUS43 KJKL 260710
RWRJKL

EAST KENTUCKY HOURLY WEATHER ROUNDUP
NATIONAL WEATHER SERVICE JACKSON KY
300 AM EDT TUE MAY 26 2015

NOTE: "FAIR" INDICATES FEW OR NO CLOUDS BELOW 12,000 FEET WITH
NO SIGNIFICANT WEATHER AND/OR OBSTRUCTIONS TO VISIBILITY.

* THESE REPORTS ARE NOT UNDER NWS QUALITY CONTROL AND MAY NOT
  REPORT WEATHER SUCH AS PRECIPITATION AND FOG.

KYZ079-080-083-085-087-088-110-112-115-119-120-260800
...EASTERN KENTUCKY...

CITY           SKY/WX    TMP DP  RH WIND       PRES   REMARKS
JACKSON        LGT RAIN  68  64  87 CALM      30.19S
LONDON         CLOUDY    69  62  78 E3        30.17F
SOMERSET*      CLOUDY    66  64  94 CALM      30.16F
MONTICELLO*    MOCLDY    69  65  87 CALM      30.17F
MIDDLESBORO*   CLOUDY    68  65  92 CALM      30.20S
HARLAN APT*    CLOUDY    68  61  77 MISG      30.21S
HAZARD APT*    CLOUDY    66  64  94 CALM      30.19S
BLACK MTN*       N/A     61  59  94 S2          N/A
PIKEVILLE APT* LGT RAIN  70  63  78 S3        30.20S
BIG SANDY*     CLOUDY    70  65  84 W3        30.19R
MOREHEAD APT*  CLOUDY    68  64  88 SW7       30.18S
$$

KYZ035-036-041-042-044-050-067-078-099-260800
...CENTRAL KENTUCKY...

CITY           SKY/WX    TMP DP  RH WIND       PRES   REMARKS
MT STERLING*   MOCLDY    68  64  88 SW5       30.16F
FLEMING/MASON* PTCLDY    66  64  94 S6        30.15F
DANVILLE*      MOCLDY    64  63  94 SW3       30.15F
RICHMOND*      MOCLDY    68  63  83 SE3       30.14F
LEXINGTON      PTCLDY    65  63  93 SE6       30.13F
FRANKFORT      CLEAR     66  63  90 S6        30.12S
$$

KYZ091>093-OHZ055-061-077-WVZ005-015-034-035-042-260800
...SOUTHERN OHIO/WEST VIRGINIA...

CITY           SKY/WX    TMP DP  RH WIND       PRES   REMARKS
COVINGTON      PTCLDY    67  63  87 SW6       30.11S
COLUMBUS       MOCLDY    68  63  84 SE6       30.11S
DAYTON         CLOUDY    70  65  84 S7        30.10S
WILMINGTON     PTCLDY    65  61  87 S6        30.11F
HUNTINGTON     CLOUDY    67  65  93 S3        30.16R
CHARLESTON     PTCLDY    65  63  93 CALM      30.16S
PINEVILLE*     PTCLDY    61  60  96 MISG      30.28S
BECKLEY        CLEAR     65  54  67 S6        30.26S
BLUEFIELD      MOCLDY    68  56  65 S8        30.28S
$$

VAZ002-007-008-TNZ017-027-036-066-071-260800
...SOUTHWEST VIRGINIA/EAST TENNESSEE...

CITY           SKY/WX    TMP DP  RH WIND       PRES   REMARKS
WISE*          LGT RAIN  66  55  68 CALM      30.28S
JONESVILLE*    CLOUDY    66  64  94 CALM      30.23S
ABINGDON*      CLOUDY    65  59  80 CALM      30.25R
BRISTOL        CLOUDY    70  60  70 CALM      30.22R
KNOXVILLE      MOCLDY    66  64  93 CALM      30.18F
OAK RIDGE      MOCLDY    68  65  90 CALM      30.20F
CROSSVILLE     CLOUDY    67  63  87 CALM      30.19F
NASHVILLE      MOCLDY    66  64  93 S7        30.11S
$$

...KEY TO REMARKS...
VSB - VISIBILITY IN MILES
WCI - WIND CHILL INDEX
HX  - HEAT INDEX

$$


USA.gov is the U.S. government's official web portal to all federal, state and local government web resources and services.